Flag for Canada Weather past 2 weeks in Mount Pearl, Newfoundland and Labrador, Canada

Now
75 °F

Passing clouds.


Feels Like: 77 °F
Forecast: 61 / 78 °F
Wind: 22 mph from West

Location: St. John's

Current Time: Jul 24, 2014 at 5:38:55 PM

Latest Report: Jul 24, 2014 at 4:30 PM


Visibility: 15 mi

Pressure: 29.84 "Hg

Humidity: 74%

Dew point: 66 °F

Location of Mount PearlLocation

Historic Weather in Mount Pearl — Graph

°F

Mount Pearl temperature yesterday

Maximum temperature yesterday: 77 °F (at 5:30 PM)
Minimum temperature yesterday: 61 °F (at 12:30 AM)
Average temperature yesterday: 67 °F

Past Weeks' High & Low Weather Summary

 TemperatureHumidityPressure
High84 °F (Jul 21, 2:30 PM)100% (Jul 9, 10:18 PM)30.26 "Hg (Jul 9, 10:18 PM)
Low48 °F (Jul 20, 1:30 AM)27% (Jul 21, 3:30 PM)29.78 "Hg (Jul 24, 4:30 AM)
Average68 °F76%30.04 "Hg
* Reported Jul 9 3:30 PM — Jul 24 3:30 PM, Mount Pearl, Weather by CustomWeather, © 2014

Note: Actual official high and low records may vary slightly from our data, if they occured in-between our weather recording intervals... More about our weather records

Advertising

Mount Pearl weather history for previous 24 hours

 ConditionsComfort  
Time TempWeatherWind HumidityBarometerVisibility
3:30 PM
Jul 24
77 °FPassing clouds.28 mph69%29.83 "Hg15 mi
2:30 PM77 °FPassing clouds.23 mph65%29.83 "Hg15 mi
1:30 PM77 °FScattered clouds.24 mph69%29.83 "Hg15 mi
12:30 PM77 °FScattered clouds.15 mph69%29.83 "Hg15 mi
11:30 AM73 °FScattered clouds.23 mph74%29.83 "Hg15 mi
10:30 AM72 °FScattered clouds.16 mph78%29.83 "Hg15 mi
9:30 AM70 °FPartly sunny.25 mph83%29.80 "Hg12 mi
8:30 AM66 °FLow clouds.22 mph94%29.80 "Hg10 mi
7:30 AM64 °FLow clouds.23 mph94%29.80 "Hg8 mi
6:30 AM63 °FLow clouds.23 mph100%29.80 "Hg8 mi
5:30 AM63 °FLow clouds.26 mph94%29.79 "Hg15 mi
4:30 AM63 °FPartly cloudy.29 mph88%29.78 "Hg15 mi
3:30 AM63 °FPassing clouds.20 mph83%29.80 "Hg15 mi
2:30 AM63 °FPassing clouds.29 mph83%29.78 "Hg15 mi
1:30 AM63 °FPassing clouds.24 mph83%29.79 "Hg15 mi
12:30 AM64 °FPassing clouds.25 mph78%29.79 "Hg15 mi
11:30 PM
Jul 23
63 °FPassing clouds.26 mph83%29.79 "Hg15 mi
10:30 PM64 °FPassing clouds.23 mph83%29.79 "Hg15 mi
9:30 PM66 °FPassing clouds.25 mph83%29.80 "Hg15 mi
8:30 PM68 °FPartly sunny.21 mph78%29.79 "Hg15 mi
7:30 PM72 °FPartly sunny.23 mph69%29.78 "Hg15 mi
6:30 PM73 °FBroken clouds.24 mph65%29.79 "Hg15 mi
5:30 PM77 °FBroken clouds.18 mph61%29.79 "Hg15 mi
Weather by CustomWeather, © 2014

See weather overviewHow to use our weather pages